Location: Rounton
(54.4000°N, 1.3500°W)
Time: 21:57:04
(UTC+00:00)

Vanguard 1 - Pass Details

Date: 02 December 2021
Orbit: 652 x 3830 km, 34.2° (Epoch: 16 January)

Event Time Altitude Azimuth Distance (km) Brightness Sun altitude
Rises 21:51:10 0° 186° (S) 7,217 - -50.2°
Reaches altitude 10° 21:58:11 10° 171° (S) 6,594 - -50.9°
Maximum altitude 22:11:14 19° 135° (SE) 6,134 - -52.3°
Drops below altitude 10° 22:24:22 10° 100° (E) 6,718 - -53.5°
Exits shadow 22:31:09 - 86° (E) 7,371 14.3 -54.0°
Sets 22:31:27 0° 86° (E) 7,405 14.4 -54.1°
